Find Starlink 38303

NORAD ID: 100451 Int'l Des: 2026-193 Owner: SPXS Country: US Constellation: starlink operational

Current View

Loading 3D Globe...

About Starlink 38303

Starlink 38303 (NORAD 100451) is a starlink constellation satellite launched Aug 22, 2026 by SPXS of US. with a mass of 575.00 kg.

Upcoming Passes

Passes for default location (London). Set your location on the main map for personalized predictions.

Altitude History

Loading altitude history...

Two-Line Element Set

1 A0451U 26193U 26249.62459379 .00184149 00000-0 87689-3 0 9997
2 A0451 69.9989 113.0574 0003911 267.6704 92.4050 15.82199143 3522
Epoch: Sep 6, 2026 • Age: 6 hours

Current Status

Altitude 343.2 km
Apogee / Perigee N/A
Velocity 7.70 km/s
Sub-Earth Point -56.96°S, 140.69°E
Launch Date Aug 22, 2026
Age 15 days
Type internet

Technical Details

Classification Payload
Mass 575.00 kg
Dry Mass 530.00 kg
Total Mass 575.00 kg
Length 0.30 m
Diameter 4.10 m
Span 29.00 m
Shape Box + pan
Manufacturer SPXS
Bus Type Starlink V2MO
Phase Status In Orbit
Owner/State SPXS/US

Most Searched